Location: Bijele Vode
(45.2833°N, 16.2000°E)
Time: 12:02:37
(UTC+00:00)

CENTAUR R/B - Pass Details

Date: 23 January 2021
Orbit: 742 x 1446 km, 63.5° (Epoch: 02 March)

Event Time Altitude Azimuth Distance (km) Brightness Sun altitude
Rises 04:51:08 0° 193° (SSW) 3,335 5.3 -16.4°
Reaches altitude 10° 04:53:31 10° 187° (S) 2,477 4.7 -16.0°
Maximum altitude 04:58:55 44° 116° (ESE) 1,282 3.7 -15.0°
Drops below altitude 10° 05:05:18 10° 47° (NE) 2,923 5.4 -13.9°
Sets 05:08:19 0° 42° (NE) 4,000 6.1 -13.4°
